RYR7DE LIEO-LIPE

Flight info

Callsign RYR7DE
Flight time 0h 46m
Altitude 30000
Route OLBEK DCT IBROS DCT NEMIT DCT ELB DCT MAREL DCT GINAR/N0332F180 L12 LOMED
Aircraft B738/M-SDE2E3FGHIRWXY/LB1

Departure

Time 2026-05-05 15:10
Airport Olbia Costa Smeralda Airport (LIEO)

Arrival

Time 2026-05-05 15:57
Airport Bologna Guglielmo Marconi Airport (LIPE)
Time Latitude Longitude Altitude Speed Heading
2026-05-05 14:46 40.90309 9.51773 32 ft 0 kts 23°
2026-05-05 15:05 40.90315 9.51797 33 ft 4 kts 107°
2026-05-05 15:05 40.90287 9.51809 33 ft 6 kts 187°
2026-05-05 15:05 40.90225 9.51789 33 ft 12 kts 165°
2026-05-05 15:06 40.90172 9.51867 33 ft 12 kts 146°
2026-05-05 15:06 40.90107 9.51832 33 ft 11 kts 234°
2026-05-05 15:06 40.90061 9.51748 32 ft 11 kts 234°
2026-05-05 15:06 40.90018 9.51664 32 ft 13 kts 236°
2026-05-05 15:07 40.89937 9.51531 33 ft 21 kts 225°
2026-05-05 15:07 40.89865 9.51371 33 ft 20 kts 235°
2026-05-05 15:07 40.89787 9.51222 33 ft 20 kts 235°
2026-05-05 15:07 40.89707 9.51067 33 ft 21 kts 233°
2026-05-05 15:08 40.89623 9.50916 33 ft 20 kts 236°
2026-05-05 15:08 40.89545 9.50761 32 ft 21 kts 235°
2026-05-05 15:08 40.89465 9.50608 33 ft 19 kts 236°
2026-05-05 15:08 40.89403 9.50488 33 ft 14 kts 236°
2026-05-05 15:09 40.89340 9.50441 33 ft 9 kts 185°
2026-05-05 15:09 40.89285 9.50477 33 ft 11 kts 117°
2026-05-05 15:09 40.89268 9.50604 34 ft 16 kts 84°
2026-05-05 15:09 40.89329 9.50740 32 ft 19 kts 59°
2026-05-05 15:10 40.89481 9.51024 32 ft 69 kts 55°
2026-05-05 15:10 40.89878 9.51784 30 ft 130 kts 55°
2026-05-05 15:10 40.90459 9.52933 246 ft 158 kts 57°
2026-05-05 15:10 40.91029 9.54179 922 ft 161 kts 59°
2026-05-05 15:11 40.91663 9.55404 1574 ft 163 kts 58°
2026-05-05 15:11 40.92328 9.56678 2037 ft 178 kts 55°
2026-05-05 15:11 40.93076 9.58056 2502 ft 190 kts 56°
2026-05-05 15:11 40.93848 9.59510 3031 ft 201 kts 56°
2026-05-05 15:12 40.94716 9.61080 3271 ft 221 kts 55°
2026-05-05 15:12 40.95636 9.62754 3720 ft 229 kts 55°
2026-05-05 15:12 40.96585 9.64503 4260 ft 237 kts 54°
2026-05-05 15:12 40.97541 9.66279 4950 ft 238 kts 55°
2026-05-05 15:13 40.98558 9.68005 5609 ft 239 kts 40°
2026-05-05 15:13 40.99991 9.69100 6275 ft 239 kts 23°
2026-05-05 15:13 41.01511 9.70037 6896 ft 243 kts 23°
2026-05-05 15:13 41.03053 9.70989 7519 ft 246 kts 23°
2026-05-05 15:14 41.04613 9.71958 8189 ft 249 kts 23°
2026-05-05 15:14 41.06187 9.72941 8872 ft 252 kts 23°
2026-05-05 15:14 41.07783 9.73941 9561 ft 255 kts 23°
2026-05-05 15:14 41.09397 9.74955 10230 ft 258 kts 23°
2026-05-05 15:15 41.11031 9.75985 10883 ft 261 kts 23°
2026-05-05 15:15 41.12681 9.77025 11546 ft 265 kts 24°
2026-05-05 15:15 41.14352 9.78080 12224 ft 268 kts 24°
2026-05-05 15:15 41.16047 9.79152 12921 ft 272 kts 24°
2026-05-05 15:16 41.17741 9.80223 13621 ft 275 kts 24°
2026-05-05 15:16 41.19480 9.81324 14277 ft 278 kts 24°
2026-05-05 15:16 41.21237 9.82437 14935 ft 281 kts 24°
2026-05-05 15:16 41.23013 9.83562 15600 ft 284 kts 23°
2026-05-05 15:17 41.24801 9.84695 16301 ft 286 kts 23°
2026-05-05 15:17 41.26626 9.85774 16952 ft 289 kts 17°
2026-05-05 15:17 41.28558 9.86551 17608 ft 291 kts 12°
2026-05-05 15:17 41.30527 9.87227 18273 ft 294 kts 11°
2026-05-05 15:18 41.32525 9.87896 18859 ft 297 kts 11°
2026-05-05 15:18 41.34550 9.88581 19300 ft 308 kts 11°
2026-05-05 15:18 41.36699 9.89319 19444 ft 329 kts 11°
2026-05-05 15:18 41.38982 9.90115 19603 ft 350 kts 12°
2026-05-05 15:19 41.41406 9.90972 19742 ft 370 kts 12°
2026-05-05 15:19 41.43956 9.91884 19873 ft 389 kts 12°
2026-05-05 15:19 41.46631 9.92847 20092 ft 405 kts 12°
2026-05-05 15:19 41.49373 9.93841 20582 ft 411 kts 12°
2026-05-05 15:20 41.52136 9.94846 21230 ft 412 kts 12°
2026-05-05 15:20 41.54911 9.95856 21866 ft 414 kts 12°
2026-05-05 15:20 41.57708 9.96873 22392 ft 420 kts 12°
2026-05-05 15:20 41.60545 9.97903 22888 ft 425 kts 12°
2026-05-05 15:21 41.63411 9.98945 23470 ft 427 kts 12°
2026-05-05 15:21 41.65310 9.99636 23804 ft 429 kts 12°
2026-05-05 15:21 41.68204 10.00690 24260 ft 432 kts 11°
2026-05-05 15:21 41.71116 10.01752 24696 ft 436 kts 11°
2026-05-05 15:22 41.74052 10.02823 25123 ft 439 kts 11°
2026-05-05 15:22 41.77017 10.03905 25553 ft 443 kts 11°
2026-05-05 15:22 41.80005 10.04996 25925 ft 448 kts 11°
2026-05-05 15:22 41.83019 10.06097 26349 ft 451 kts 10°
2026-05-05 15:23 41.86054 10.07207 26771 ft 453 kts 10°
2026-05-05 15:23 41.89101 10.08324 27188 ft 456 kts 10°
2026-05-05 15:23 41.92165 10.09448 27685 ft 456 kts 10°
2026-05-05 15:23 41.95221 10.10572 28272 ft 454 kts
2026-05-05 15:24 41.98264 10.11693 28902 ft 452 kts
2026-05-05 15:24 42.01253 10.12795 29475 ft 451 kts
2026-05-05 15:24 42.04278 10.13909 29946 ft 452 kts
2026-05-05 15:25 42.10433 10.16175 29974 ft 455 kts
2026-05-05 15:25 42.16453 10.18405 29982 ft 450 kts
2026-05-05 15:26 42.22511 10.20646 29963 ft 452 kts
2026-05-05 15:26 42.28567 10.22894 29966 ft 451 kts
2026-05-05 15:27 42.34607 10.25141 29966 ft 449 kts
2026-05-05 15:27 42.40604 10.27377 29971 ft 448 kts
2026-05-05 15:28 42.46600 10.29619 29977 ft 446 kts
2026-05-05 15:28 42.52585 10.31861 29979 ft 446 kts
2026-05-05 15:29 42.58566 10.34106 29984 ft 447 kts
2026-05-05 15:29 42.64571 10.36365 29980 ft 448 kts
2026-05-05 15:30 42.70589 10.38633 29979 ft 449 kts
2026-05-05 15:30 42.76566 10.41048 29991 ft 453 kts 12°
2026-05-05 15:31 42.82528 10.43839 29990 ft 449 kts 13°
2026-05-05 15:31 42.85451 10.45236 29667 ft 443 kts 13°
2026-05-05 15:31 42.88335 10.46597 29350 ft 435 kts 13°
2026-05-05 15:31 42.91183 10.47926 28976 ft 430 kts 13°
2026-05-05 15:32 42.93968 10.49218 28552 ft 427 kts 13°
2026-05-05 15:32 42.96753 10.50508 28345 ft 419 kts 13°
2026-05-05 15:32 42.99504 10.51781 27964 ft 415 kts 13°
2026-05-05 15:32 43.02234 10.53044 27582 ft 412 kts 13°
2026-05-05 15:33 43.04940 10.54298 27186 ft 410 kts 13°
2026-05-05 15:33 43.07630 10.55546 26808 ft 407 kts 13°
2026-05-05 15:33 43.10305 10.56789 26426 ft 405 kts 14°
2026-05-05 15:33 43.12954 10.58022 26046 ft 403 kts 14°
2026-05-05 15:34 43.15597 10.59254 25683 ft 400 kts 14°
2026-05-05 15:34 43.18220 10.60476 25290 ft 398 kts 14°
2026-05-05 15:34 43.20837 10.61698 24929 ft 396 kts 14°
2026-05-05 15:34 43.23444 10.62916 24565 ft 395 kts 14°
2026-05-05 15:35 43.26037 10.64128 24192 ft 394 kts 14°
2026-05-05 15:35 43.28627 10.65340 23819 ft 392 kts 14°
2026-05-05 15:35 43.31205 10.66546 23447 ft 390 kts 15°
2026-05-05 15:35 43.33764 10.67743 23050 ft 388 kts 14°
2026-05-05 15:36 43.36315 10.68936 22643 ft 386 kts 14°
2026-05-05 15:36 43.38853 10.70125 22263 ft 384 kts 14°
2026-05-05 15:36 43.41369 10.71305 21882 ft 382 kts 15°
2026-05-05 15:36 43.43877 10.72482 21509 ft 379 kts 15°
2026-05-05 15:37 43.46361 10.73649 21143 ft 376 kts 15°
2026-05-05 15:37 43.48834 10.74812 20777 ft 374 kts 15°
2026-05-05 15:37 43.51286 10.75966 20419 ft 372 kts 15°
2026-05-05 15:37 43.53728 10.77116 20069 ft 370 kts 15°
2026-05-05 15:38 43.56162 10.78263 19709 ft 370 kts 15°
2026-05-05 15:38 43.58600 10.79413 19353 ft 369 kts 15°
2026-05-05 15:38 43.61028 10.80559 18999 ft 368 kts 15°
2026-05-05 15:38 43.63445 10.81701 18636 ft 367 kts 15°
2026-05-05 15:39 43.65864 10.82844 18270 ft 366 kts 15°
2026-05-05 15:39 43.68263 10.83978 17863 ft 365 kts 15°
2026-05-05 15:39 43.70638 10.85101 17477 ft 363 kts 15°
2026-05-05 15:39 43.73023 10.86230 17112 ft 362 kts 15°
2026-05-05 15:40 43.75394 10.87352 16764 ft 359 kts 15°
2026-05-05 15:40 43.77749 10.88469 16513 ft 356 kts 15°
2026-05-05 15:40 43.80088 10.89579 16260 ft 355 kts 15°
2026-05-05 15:40 43.82420 10.90686 16010 ft 354 kts 15°
2026-05-05 15:41 43.84749 10.91792 15755 ft 353 kts 15°
2026-05-05 15:41 43.87069 10.92891 15509 ft 352 kts 15°
2026-05-05 15:41 43.89380 10.93987 15266 ft 351 kts 15°
2026-05-05 15:41 43.91687 10.95082 15026 ft 350 kts 15°
2026-05-05 15:42 43.93990 10.96176 14798 ft 350 kts 15°
2026-05-05 15:42 43.96295 10.97271 14563 ft 350 kts 15°
2026-05-05 15:42 43.98580 10.98357 14325 ft 350 kts 15°
2026-05-05 15:42 44.00885 10.99455 14098 ft 349 kts 15°
2026-05-05 15:43 44.03178 11.00556 13861 ft 350 kts 16°
2026-05-05 15:43 44.05451 11.01785 13617 ft 350 kts 18°
2026-05-05 15:43 44.07706 11.03070 13362 ft 350 kts 18°
2026-05-05 15:43 44.09949 11.04356 13077 ft 346 kts 18°
2026-05-05 15:44 44.12160 11.05612 12848 ft 341 kts 18°
2026-05-05 15:44 44.14343 11.06842 12577 ft 336 kts 18°
2026-05-05 15:44 44.16495 11.08052 12310 ft 332 kts 18°
2026-05-05 15:44 44.18635 11.09254 12063 ft 330 kts 18°
2026-05-05 15:45 44.20745 11.10441 11821 ft 326 kts 19°
2026-05-05 15:45 44.22832 11.11613 11522 ft 324 kts 19°
2026-05-05 15:45 44.24918 11.12787 11190 ft 323 kts 19°
2026-05-05 15:45 44.26998 11.13958 10863 ft 321 kts 19°
2026-05-05 15:46 44.29064 11.15122 10550 ft 320 kts 19°
2026-05-05 15:46 44.31124 11.16282 10223 ft 319 kts 19°
2026-05-05 15:46 44.33160 11.17432 10082 ft 311 kts 19°
2026-05-05 15:46 44.35122 11.18544 9880 ft 307 kts 19°
2026-05-05 15:47 44.37135 11.19683 9479 ft 308 kts 19°
2026-05-05 15:47 44.38448 11.20427 9277 ft 307 kts 19°
2026-05-05 15:47 44.41131 11.21746 8827 ft 303 kts
2026-05-05 15:47 44.43171 11.21516 8531 ft 291 kts 337°
2026-05-05 15:48 44.44898 11.20175 8244 ft 282 kts 316°
2026-05-05 15:48 44.46161 11.18141 7918 ft 274 kts 296°
2026-05-05 15:48 44.47038 11.15830 7821 ft 265 kts 293°
2026-05-05 15:48 44.47869 11.13523 7604 ft 267 kts 293°
2026-05-05 15:49 44.48694 11.11233 7297 ft 271 kts 293°
2026-05-05 15:49 44.49540 11.08863 6936 ft 273 kts 293°
2026-05-05 15:49 44.50388 11.06479 6558 ft 275 kts 293°
2026-05-05 15:49 44.51249 11.04065 6162 ft 278 kts 294°
2026-05-05 15:50 44.52116 11.01640 5755 ft 280 kts 294°
2026-05-05 15:50 44.52990 10.99192 5326 ft 282 kts 294°
2026-05-05 15:50 44.53866 10.96740 4767 ft 283 kts 294°
2026-05-05 15:50 44.54758 10.94286 4205 ft 283 kts 299°
2026-05-05 15:51 44.56104 10.92282 3633 ft 286 kts 327°
2026-05-05 15:51 44.57934 10.91450 3507 ft 271 kts 354°
2026-05-05 15:51 44.59779 10.91684 3234 ft 263 kts 17°
2026-05-05 15:51 44.61432 10.92679 2979 ft 255 kts 26°
2026-05-05 15:52 44.62970 10.93879 2724 ft 253 kts 38°
2026-05-05 15:52 44.63938 10.95865 2556 ft 246 kts 76°
2026-05-05 15:52 44.63890 10.98157 2530 ft 229 kts 104°
2026-05-05 15:52 44.63465 11.00239 2516 ft 218 kts 107°
2026-05-05 15:53 44.62975 11.02229 2506 ft 212 kts 109°
2026-05-05 15:53 44.62420 11.04147 2520 ft 213 kts 113°
2026-05-05 15:53 44.61788 11.05994 2507 ft 205 kts 116°
2026-05-05 15:53 44.61164 11.07725 2507 ft 192 kts 116°
2026-05-05 15:54 44.60565 11.09381 2530 ft 189 kts 116°
2026-05-05 15:54 44.59970 11.11026 2529 ft 190 kts 116°
2026-05-05 15:54 44.59370 11.12688 2459 ft 193 kts 116°
2026-05-05 15:54 44.58757 11.14385 2224 ft 195 kts 115°
2026-05-05 15:55 44.58150 11.16067 1987 ft 192 kts 114°
2026-05-05 15:55 44.57552 11.17728 1738 ft 191 kts 115°
2026-05-05 15:55 44.56958 11.19374 1461 ft 186 kts 115°
2026-05-05 15:55 44.56391 11.20946 1220 ft 175 kts 115°
2026-05-05 15:56 44.55861 11.22417 1004 ft 161 kts 113°
2026-05-05 15:56 44.55375 11.23771 758 ft 150 kts 114°
2026-05-05 15:56 44.54910 11.25058 570 ft 148 kts 113°
2026-05-05 15:56 44.54439 11.26388 390 ft 154 kts 113°
2026-05-05 15:57 44.53953 11.27724 164 ft 153 kts 114°
2026-05-05 15:57 44.53520 11.28939 123 ft 114 kts 117°
2026-05-05 15:57 44.53322 11.29489 127 ft 37 kts 121°
2026-05-05 15:57 44.53208 11.29641 127 ft 14 kts 145°
2026-05-05 15:58 44.53124 11.29712 128 ft 13 kts 152°
2026-05-05 15:58 44.53072 11.29764 127 ft 5 kts 143°
2026-05-05 15:58 44.53056 11.29779 127 ft 3 kts 152°
2026-05-05 15:58 44.53037 11.29773 129 ft 4 kts 226°
2026-05-05 15:59 44.53045 11.29706 128 ft 11 kts 289°
2026-05-05 15:59 44.53086 11.29588 128 ft 14 kts 296°
2026-05-05 15:59 44.53131 11.29467 129 ft 14 kts 296°
2026-05-05 15:59 44.53167 11.29370 127 ft 11 kts 294°
2026-05-05 16:00 44.53199 11.29278 128 ft 11 kts 295°
2026-05-05 16:00 44.53179 11.29193 128 ft 11 kts 208°
2026-05-05 16:00 44.53112 11.29146 127 ft 11 kts 207°
2026-05-05 16:00 44.53046 11.29100 125 ft 10 kts 206°
2026-05-05 16:01 44.53009 11.29086 128 ft 2 kts 128°
2026-05-05 16:01 44.53003 11.29110 128 ft 4 kts 112°
2026-05-05 16:01 44.52992 11.29143 129 ft 2 kts 116°
2026-05-05 16:01 44.52990 11.29148 129 ft 0 kts 116°